[[{"header":{"parameterUnit":"m.s-1","parameterCategory":1,"la1":30.2991,"la2":30.254,"lo1":-89.0895,"lo2":-89.0444,"dy":0.0017,"dx":0.0017,"nx":28,"ny":28,"refTime":"2024-04-12T03:00:00:Z","depth":0,"parameterNumber":2,"parameterNumberName":"U-component_of_WINDS"},"data":[0,0,0,0,0,0,0,0,0,0,0,0,0,0,0,0,0,0,0,0,0,0,0,0,0,0,0,0,0,0,0,0,0,0,0,0,0,0,0,0,0,0,0,0,0,0,0,0,0,0,0,0,0,0,0,0,0,0,3.0692,3.0693,0,3.0791,3.0792,3.0793,3.0737,3.0734,3.0732,3.0729,3.0833,3.0838,3.0844,0,0,0,0,0,0,0,0,0,0,0,0,0,3.0457,3.0462,3.0692,3.0693,3.0694,3.0791,3.0792,3.0793,3.0738,3.0734,3.0731,3.0728,3.0831,3.0838,3.0844,0,0,0,0,0,0,0,0,0,0,0,0,0,3.0558,3.0463,3.0691,3.0678,3.0678,3.079,3.0792,3.0794,3.0738,3.0734,3.073,3.0726,3.0829,3.0837,3.0845,3.0977,0,0,3.0869,3.0873,0,0,0,0,0,0,0,0,3.0552,3.0566,3.0679,3.0679,3.0679,3.0747,3.0747,3.0855,3.0739,3.0715,3.0729,3.0724,3.0808,3.0818,3.0845,3.0982,3.0987,3.087,3.0875,3.0878,3.0881,0,0,0,0,0,0,0,3.0545,3.0562,3.0731,3.068,3.0681,3.0668,3.0678,3.0767,3.0784,3.0717,3.0713,3.0726,3.0807,3.0838,3.0847,3.0988,3.087,3.0877,3.0882,3.0885,3.1239,3.1244,0,0,0,0,0,0,3.0539,3.0556,3.0728,3.0734,3.0604,3.0675,3.0686,3.073,3.0783,3.0787,3.0729,3.0723,3.0826,3.0838,3.0851,3.101,3.0878,3.0886,3.0891,3.1235,3.124,3.1245,0,0,0,0,0,0,3.0534,3.0555,3.0724,3.0644,3.0665,3.0684,3.0733,3.0734,3.0764,3.0792,3.0795,3.0757,3.0823,3.084,3.0946,3.1012,3.089,3.0897,3.1229,3.1236,3.1243,3.1328,0,0,0,0,0,0,3.0527,3.0553,3.0603,3.0646,3.0669,3.0817,3.0737,3.0739,3.0778,3.077,3.0819,3.0823,3.0821,3.0935,3.0954,3.1021,3.0903,3.1223,3.1232,3.1241,3.1319,3.1337,3.1352,0,0,0,0,0,3.0519,3.0623,3.0606,3.0627,3.0732,3.0821,3.0834,3.083,3.0783,3.0834,3.0852,3.0821,3.1002,3.0946,3.0968,3.1038,3.1219,3.123,3.124,3.1312,3.1334,3.1352,0,0,0,0,0,0,3.0589,3.0629,3.061,3.0731,3.0773,3.0811,3.0875,3.0853,3.0909,3.09,3.0893,3.0905,3.1016,3.1038,3.0974,3.1169,3.1103,3.1119,3.1151,3.1172,3.1188,3.118,3.091,0,0,0,0,0,3.0618,3.0686,3.0718,3.0822,3.0844,3.0856,3.0894,3.0887,3.0931,3.0949,3.0974,3.1019,3.1085,3.113,3.1193,3.1322,3.1332,3.1382,3.1398,3.1411,3.1424,3.1495,3.1518,3.1279,3.1279,3.1279,0,0,3.0679,3.071,3.0753,3.0836,3.0868,3.094,3.0871,3.095,3.1003,3.0961,3.1063,3.1084,3.1133,3.1252,3.1305,3.1273,3.1493,3.1424,3.1435,3.1441,3.1508,3.1531,3.1551,3.1286,3.1285,3.1284,0,0,3.0828,3.0858,3.0947,3.0981,3.1029,3.1037,3.1058,3.1101,3.1113,3.1215,3.1185,3.1249,3.1364,3.14,3.1433,3.1597,3.1571,3.1617,3.1703,3.1772,3.1791,3.1807,3.1866,3.1887,3.163,3.1631,3.1631,0,3.0898,3.1004,3.0997,3.1078,3.1115,3.108,3.1171,3.1204,3.1272,3.1299,3.1262,3.1406,3.1436,3.1563,3.1603,3.1631,3.1656,3.1612,3.1788,3.1805,3.1821,3.1876,3.1898,3.1636,3.1635,3.1635,3.1634,0,3.1089,3.1163,3.123,3.1295,3.134,3.1426,3.1432,3.1479,3.1469,3.148,3.1586,3.1621,3.169,3.172,3.1711,3.1847,3.1825,3.1789,3.1722,3.1849,3.1901,3.1922,3.1644,3.1642,3.164,3.1639,0,0,3.1284,3.1344,3.1368,3.1398,3.1449,3.1507,3.1591,3.1659,3.17,3.1747,3.1819,3.1917,3.1884,3.1922,3.1916,3.1977,3.2105,3.1933,3.1934,3.1964,3.2257,3.2285,3.231,3.2088,3.2092,3.2095,3.2253,0,3.1436,3.1583,3.1579,3.1716,3.1785,3.1753,3.1827,3.1867,3.188,3.1941,3.1956,3.2026,3.1977,3.1999,3.2058,3.2077,3.2164,3.2065,3.2155,3.2158,3.2144,3.2337,3.2366,3.2514,3.2274,3.2277,3.228,0,3.1633,3.1687,3.1831,3.1872,3.1901,3.1968,3.2029,3.2088,3.2133,3.2139,3.2182,3.2167,3.2254,3.2185,3.2305,3.2238,3.2275,3.229,3.2296,3.2304,3.2227,3.2351,3.2561,3.2583,3.2312,3.2309,3.2307,0,3.1761,3.187,3.197,3.1996,3.2047,3.2095,3.2119,3.2159,3.22,3.2255,3.2282,3.2346,3.2381,3.2432,3.2435,3.2384,3.2557,3.2488,3.2564,3.2564,3.2602,3.26,3.2821,3.2626,3.2625,3.2625,3.2624,0,3.1932,3.2021,3.2028,3.209,3.219,3.2185,3.2284,3.2303,3.234,3.2406,3.2382,3.2444,3.2444,3.2508,3.2511,3.2611,3.2627,3.2634,3.2634,3.2637,3.2636,3.2661,3.2651,3.2631,3.2629,3.2628,3.2627,0,3.2092,3.21,3.2208,3.2247,3.2259,3.2331,3.2365,3.2424,3.2436,3.2519,3.2538,3.2557,3.2631,3.2638,3.2725,3.2727,3.2847,3.2836,3.2832,3.283,3.2906,3.2899,3.3151,3.3184,3.2967,3.2969,3.2971,0,3.22,3.2269,3.2315,3.2357,3.2383,3.2451,3.2493,3.249,3.2535,3.2592,3.2645,3.2716,3.2773,3.2893,3.2915,3.2981,3.2971,3.3055,3.2981,3.2981,3.2973,3.2969,3.2976,3.3069,3.3072,3.3074,3.3075,0,3.2392,3.2393,3.2453,3.2516,3.2566,3.2615,3.2661,3.2697,3.2701,3.2752,3.2827,3.2871,3.2959,3.3031,3.3096,3.3121,3.31,3.3098,3.312,3.3123,3.3118,3.3122,3.2871,3.3093,3.3091,3.309,3.3089,3.3088,3.253,3.2589,3.2631,3.27,3.2734,3.2778,3.2835,3.2854,3.2916,3.2987,3.2982,3.3065,3.3109,3.3194,3.3224,3.329,3.3262,3.3293,3.3301,3.3308,3.3316,3.3107,3.3302,3.3301,3.3301,3.33,3.33,0,3.2721,3.2746,3.2809,3.2874,3.2928,3.2902,3.2952,3.2999,3.3072,3.3115,3.3171,3.3258,3.3327,3.3354,3.3422,3.347,3.3462,3.3488,3.3484,3.3491,3.3337,3.3312,3.3493,3.3493,3.3493,3.3493,3.3493,3.3493,3.2827,3.2925,3.2931,3.3047,3.3072,3.3153,3.3183,3.3224,3.3258,3.3355,3.3413,3.3429,3.3466,3.3537,3.36,3.3606,3.3632,3.3663,3.3665,3.3521,3.3501,3.3483,3.3459,3.3669,3.3669,3.3813,3.3815,3.3816]},{"header":{"parameterUnit":"m.s-1","parameterCategory":1,"la1":30.2991,"la2":30.254,"lo1":-89.0895,"lo2":-89.0444,"dy":0.0017,"dx":0.0017,"nx":28,"ny":28,"refTime":"2024-04-12T03:00:00:Z","depth":0,"parameterNumber":3,"parameterNumberName":"V-component_of_WINDS"},"data":[0,0,0,0,0,0,0,0,0,0,0,0,0,0,0,0,0,0,0,0,0,0,0,0,0,0,0,0,0,0,0,0,0,0,0,0,0,0,0,0,0,0,0,0,0,0,0,0,0,0,0,0,0,0,0,0,0,0,0.774,0.774,0,0.7739,0.7739,0.7739,0.7723,0.7722,0.7722,0.7721,0.772,0.7721,0.7721,0,0,0,0,0,0,0,0,0,0,0,0,0,0.7727,0.7727,0.774,0.774,0.774,0.7739,0.7739,0.7739,0.7723,0.7722,0.7722,0.7721,0.772,0.772,0.7721,0,0,0,0,0,0,0,0,0,0,0,0,0,0.773,0.7727,0.774,0.7732,0.7731,0.7739,0.7739,0.7739,0.7723,0.7722,0.7722,0.7721,0.772,0.772,0.7721,0.7737,0,0,0.7723,0.7723,0,0,0,0,0,0,0,0,0.773,0.773,0.7733,0.7732,0.7731,0.773,0.7734,0.7738,0.7723,0.7726,0.7721,0.7721,0.7724,0.7724,0.7725,0.7736,0.7736,0.7723,0.7723,0.7723,0.7723,0,0,0,0,0,0,0,0.7729,0.773,0.7739,0.7733,0.7732,0.7728,0.7727,0.7734,0.7728,0.7726,0.7724,0.7725,0.7723,0.7725,0.7725,0.7736,0.7723,0.7723,0.7723,0.7724,0.7759,0.776,0,0,0,0,0,0,0.773,0.773,0.7739,0.7739,0.7729,0.7728,0.7728,0.7731,0.7728,0.7727,0.7725,0.7724,0.7724,0.7725,0.7725,0.7743,0.7723,0.7724,0.7724,0.7759,0.7759,0.776,0,0,0,0,0,0,0.773,0.7731,0.7739,0.7734,0.7735,0.7729,0.7733,0.7732,0.7733,0.7728,0.7727,0.7728,0.7724,0.7724,0.7734,0.7743,0.7724,0.7724,0.7758,0.7759,0.776,0.7779,0,0,0,0,0,0,0.773,0.7731,0.7738,0.7735,0.7735,0.7748,0.7733,0.7732,0.7734,0.7732,0.773,0.7729,0.7723,0.7733,0.7734,0.7743,0.7725,0.7757,0.7758,0.776,0.7777,0.778,0.7783,0,0,0,0,0,0.7729,0.7743,0.7738,0.7739,0.7743,0.7749,0.7749,0.7743,0.7735,0.7741,0.7737,0.7729,0.7741,0.7734,0.7735,0.7744,0.7757,0.7758,0.7759,0.7776,0.7779,0.7782,0,0,0,0,0,0,0.7748,0.7743,0.7737,0.775,0.775,0.7746,0.7754,0.7747,0.7749,0.7747,0.7739,0.7738,0.7749,0.7747,0.7739,0.7759,0.7747,0.7749,0.776,0.7763,0.7765,0.7766,0.7725,0,0,0,0,0,0.7753,0.7758,0.7754,0.7766,0.7766,0.776,0.7762,0.7757,0.7756,0.7756,0.7754,0.7754,0.7757,0.776,0.7763,0.7777,0.7776,0.7783,0.7786,0.7788,0.779,0.7796,0.78,0.7765,0.7765,0.7765,0,0,0.7764,0.7762,0.7766,0.7769,0.7769,0.7774,0.776,0.7767,0.777,0.7757,0.7766,0.7764,0.7763,0.7774,0.7779,0.7773,0.7799,0.779,0.7792,0.7792,0.7798,0.7802,0.7805,0.7766,0.7766,0.7766,0,0,0.7788,0.7787,0.7797,0.7796,0.7795,0.7791,0.7793,0.779,0.7788,0.7797,0.7787,0.7791,0.7798,0.7797,0.7798,0.782,0.7813,0.7821,0.7836,0.7842,0.7845,0.7847,0.7855,0.7858,0.7823,0.7823,0.7823,0,0.7803,0.7811,0.7803,0.781,0.7811,0.7799,0.7808,0.7808,0.7808,0.7809,0.7803,0.781,0.7809,0.782,0.7825,0.7826,0.7828,0.7822,0.7845,0.7848,0.785,0.7857,0.786,0.7824,0.7824,0.7824,0.7824,0,0.7828,0.7834,0.7842,0.7842,0.7844,0.7852,0.7845,0.7848,0.7842,0.7838,0.7847,0.7844,0.7846,0.7848,0.7843,0.7858,0.7855,0.7847,0.7835,0.7854,0.7861,0.7864,0.7826,0.7825,0.7825,0.7825,0,0,0.7865,0.7859,0.7863,0.7862,0.786,0.7864,0.7871,0.7873,0.7875,0.7875,0.7881,0.7886,0.7879,0.788,0.7874,0.7879,0.7897,0.787,0.787,0.7876,0.7913,0.7919,0.7923,0.7891,0.7892,0.7892,0.7913,0,0.7888,0.79,0.7892,0.7906,0.7911,0.7898,0.7905,0.7904,0.79,0.7903,0.7899,0.7903,0.7892,0.7893,0.7898,0.7894,0.7904,0.7892,0.7896,0.7897,0.7898,0.7926,0.7933,0.7953,0.7916,0.7916,0.7917,0,0.7916,0.7917,0.7931,0.7927,0.7929,0.7935,0.7935,0.7938,0.7937,0.7933,0.7934,0.7926,0.7932,0.792,0.7929,0.7921,0.7922,0.792,0.792,0.7921,0.7908,0.7928,0.7959,0.7963,0.7921,0.792,0.792,0,0.7942,0.7946,0.7955,0.7955,0.795,0.7954,0.7953,0.795,0.7951,0.7952,0.7953,0.7954,0.7955,0.7955,0.7948,0.794,0.7957,0.7945,0.7955,0.7955,0.7959,0.7959,0.7992,0.796,0.796,0.7959,0.7959,0,0.7968,0.7977,0.7966,0.7972,0.7981,0.7972,0.7981,0.7978,0.7975,0.798,0.7969,0.7973,0.7963,0.7966,0.796,0.7968,0.7968,0.7966,0.7964,0.7967,0.7967,0.7968,0.7967,0.796,0.796,0.796,0.796,0,0.7998,0.7991,0.8,0.7994,0.7993,0.8,0.7995,0.8,0.7995,0.8,0.8001,0.7993,0.7996,0.7989,0.7991,0.7986,0.7997,0.7993,0.7998,0.7997,0.8007,0.8007,0.8042,0.8046,0.8011,0.8011,0.8012,0,0.8016,0.8023,0.8017,0.8019,0.8018,0.8022,0.8023,0.8013,0.8015,0.8013,0.8017,0.8019,0.802,0.8025,0.802,0.8021,0.8017,0.8029,0.8017,0.802,0.8017,0.8017,0.8018,0.8032,0.8032,0.8033,0.8033,0,0.8048,0.8044,0.8046,0.8047,0.8049,0.8049,0.8048,0.805,0.804,0.8042,0.8045,0.8046,0.8047,0.8049,0.8049,0.8046,0.8038,0.8037,0.8039,0.8042,0.8045,0.8044,0.8005,0.8036,0.8036,0.8036,0.8035,0.8035,0.8073,0.8078,0.8075,0.8077,0.8075,0.8075,0.8079,0.8074,0.8076,0.8076,0.807,0.8074,0.8071,0.807,0.8068,0.8071,0.8065,0.8069,0.807,0.8071,0.8072,0.8044,0.8071,0.8071,0.807,0.807,0.807,0,0.8105,0.8102,0.8104,0.8103,0.8105,0.8096,0.8095,0.8097,0.81,0.8098,0.8099,0.8102,0.8103,0.8097,0.8098,0.8101,0.8097,0.8102,0.8101,0.8101,0.8077,0.8075,0.8105,0.8105,0.8105,0.8105,0.8105,0.8105,0.8122,0.8129,0.8125,0.8131,0.8128,0.8132,0.8131,0.8131,0.8129,0.8132,0.8133,0.8129,0.8125,0.8125,0.8126,0.8124,0.8125,0.8131,0.8128,0.8106,0.8103,0.81,0.8098,0.8131,0.8131,0.8151,0.8151,0.8151]}]]